Date String (YYYY-MM-DD hh:mm:ss) UTC,Instrument flags,Ambient pressure (hPa),Sample flow (lpm),Bypass flow (lpm),Sample temperature (°C),Ambient temperature (°C),ASC tube jacket temperature (°C),LED temperature (°C),Box temperature (°C),Sample RH (%),Span deviation,Mass concentration (μg/m³),Mass concentration (μg/m³),Mass concentration (μg/m³)
DateTimeUTC,F1_M11,P_M11,Q1_M11,Q2_M11,T1_M11,T2_M11,T3_M11,T4_M11,T5_M11,U1_M11,ZSPAN_M11,X0_M11,X2_M11,X1_M11
2022-09-18 13:00:00,,0825.6,5.01,0.00,30.5,28.8,00.0,39.3,32.2,19.2,0000.0,0009.58,0005.06,0004.60
2022-09-18 13:01:00,,0825.6,5.00,0.00,30.5,28.8,00.0,39.3,32.2,19.2,0000.0,0009.67,0005.05,0004.58
2022-09-18 13:02:00,,0825.6,5.00,0.00,30.5,28.8,00.0,39.3,32.2,19.1,0000.0,0009.70,0005.06,0004.57
2022-09-18 13:03:00,,0825.6,5.01,0.00,30.5,28.9,00.0,39.3,32.2,18.8,0000.0,0010.46,0005.01,0004.53
2022-09-18 13:04:00,,0825.6,4.99,0.00,30.5,28.9,00.0,39.3,32.2,18.7,0000.5,0010.00,0004.97,0004.51
2022-09-18 13:05:00,,0825.6,5.00,0.00,30.5,28.9,00.0,39.3,32.2,18.7,0001.9,0009.85,0004.96,0004.48
2022-09-18 13:06:00,,0825.7,5.00,0.00,30.5,28.9,00.0,39.3,32.2,18.6,0001.1,0009.85,0004.93,0004.45
2022-09-18 13:07:00,,0825.7,4.99,0.00,30.5,28.9,00.0,39.3,32.2,18.7,0000.0,0009.81,0004.90,0004.43
2022-09-18 13:08:00,,0825.7,5.01,0.00,30.5,28.9,00.0,39.3,32.2,19.2,0000.7,0009.51,0004.86,0004.43
2022-09-18 13:09:00,,0825.7,5.00,0.00,30.5,28.9,00.0,39.3,32.2,19.3,0000.0,0008.68,0004.81,0004.42
2022-09-18 13:10:00,,0825.8,4.98,0.00,30.5,28.8,00.0,39.3,32.2,19.4,0000.1,0008.56,0004.82,0004.42
2022-09-18 13:11:00,,0825.9,5.01,0.00,30.5,28.9,00.0,39.3,32.2,19.0,0000.9,0008.57,0004.84,0004.43
2022-09-18 13:12:00,,0826.0,4.99,0.00,30.5,28.9,00.0,39.3,32.2,18.8,0000.2,0008.90,0004.84,0004.42
2022-09-18 13:13:00,,0826.0,5.01,0.00,30.5,28.8,00.0,39.3,32.2,18.9,0000.0,0008.95,0004.80,0004.39
2022-09-18 13:14:00,,0825.9,4.99,0.00,30.5,28.8,00.0,39.3,32.2,19.2,0000.0,0008.47,0004.83,0004.40
2022-09-18 13:15:00,,0825.8,5.01,0.00,30.5,28.9,00.0,39.3,32.2,19.2,0000.0,0008.72,0004.89,0004.43
2022-09-18 13:16:00,,0825.9,4.99,0.00,30.4,28.9,00.0,39.3,32.2,18.8,0000.0,0008.69,0004.90,0004.43
2022-09-18 13:17:00,,0825.9,5.00,0.00,30.4,28.9,00.0,39.3,32.2,18.8,0000.0,0008.67,0004.90,0004.44
2022-09-18 13:18:00,,0825.9,5.00,0.00,30.4,28.8,00.0,39.3,32.2,18.9,0000.1,0008.65,0004.91,0004.45
2022-09-18 13:19:00,,0826.0,4.99,0.00,30.4,28.8,00.0,39.3,32.2,19.0,0000.0,0008.69,0004.92,0004.44
2022-09-18 13:20:00,,0825.9,5.01,0.00,30.4,28.8,00.0,39.3,32.2,19.2,0000.1,0008.77,0004.94,0004.43
2022-09-18 13:21:00,,0825.9,5.00,0.00,30.4,28.9,00.0,39.3,32.2,19.4,-000.1,0008.84,0004.92,0004.42
2022-09-18 13:22:00,,0825.9,5.01,0.00,30.4,28.8,00.0,39.3,32.2,19.4,0000.5,0008.98,0004.89,0004.43
2022-09-18 13:23:00,,0825.9,5.00,0.00,30.4,28.8,00.0,39.3,32.2,19.5,0000.5,0008.90,0004.90,0004.45
2022-09-18 13:24:00,,0825.9,5.00,0.00,30.4,28.8,00.0,39.2,32.2,19.6,0000.7,0009.00,0004.98,0004.51
2022-09-18 13:25:00,,0826.0,5.01,0.00,30.4,28.8,00.0,39.2,32.2,19.7,0000.6,0008.96,0005.02,0004.55
2022-09-18 13:26:00,,0826.0,4.99,0.00,30.4,28.8,00.0,39.2,32.2,19.6,0000.5,0008.53,0005.00,0004.57
2022-09-18 13:27:00,,0826.0,5.00,0.00,30.4,28.8,00.0,39.2,32.2,19.2,0000.8,0008.57,0005.00,0004.57
2022-09-18 13:28:00,,0826.0,5.00,0.00,30.4,28.8,00.0,39.2,32.2,19.1,0001.0,0009.04,0005.01,0004.60
2022-09-18 13:29:00,,0826.0,5.01,0.00,30.4,28.8,00.0,39.2,32.2,19.3,0001.5,0009.96,0005.04,0004.63
2022-09-18 13:30:00,,0826.0,5.00,0.00,30.4,28.8,00.0,39.2,32.2,19.2,0002.0,0010.47,0005.05,0004.63
2022-09-18 13:31:00,,0826.0,4.99,0.00,30.4,28.8,00.0,39.2,32.2,19.2,0000.5,0010.87,0005.04,0004.65
2022-09-18 13:32:00,,0826.0,5.01,0.00,30.4,28.8,00.0,39.2,32.2,19.1,0000.0,0011.13,0005.02,0004.64
2022-09-18 13:33:00,,0826.0,5.00,0.00,30.4,28.8,00.0,39.2,32.2,19.1,0000.9,0010.86,0005.03,0004.61
2022-09-18 13:34:00,,0826.0,5.00,0.00,30.4,28.9,00.0,39.2,32.2,19.1,0000.1,0010.76,0004.96,0004.58
2022-09-18 13:35:00,,0826.0,5.00,0.00,30.4,28.9,00.0,39.2,32.2,19.3,0000.0,0010.91,0004.91,0004.54
2022-09-18 13:36:00,,0826.1,5.01,0.00,30.4,28.9,00.0,39.2,32.1,19.4,0000.0,0010.84,0004.86,0004.50
2022-09-18 13:37:00,,0826.1,4.99,0.00,30.4,28.9,00.0,39.2,32.2,19.4,0000.0,0010.91,0004.83,0004.45
2022-09-18 13:38:00,,0826.2,5.00,0.00,30.4,28.9,00.0,39.2,32.2,19.5,0000.0,0011.65,0004.81,0004.43
2022-09-18 13:39:00,,0826.1,5.00,0.00,30.4,28.9,00.0,39.2,32.1,19.5,0000.0,0011.82,0004.82,0004.41
2022-09-18 13:40:00,,0826.1,5.01,0.00,30.4,28.8,00.0,39.2,32.1,19.5,0000.0,0010.93,0004.78,0004.40
2022-09-18 13:41:00,,0826.1,4.99,0.00,30.4,28.9,00.0,39.2,32.2,19.5,0000.0,0010.44,0004.78,0004.40
2022-09-18 13:42:00,,0826.1,5.01,0.00,30.4,28.9,00.0,39.2,32.2,19.7,0000.0,0010.33,0004.76,0004.39
2022-09-18 13:43:00,,0826.2,4.99,0.00,30.4,28.9,00.0,39.2,32.2,19.8,0000.0,0009.92,0004.76,0004.37
2022-09-18 13:44:00,,0826.1,5.00,0.00,30.4,28.9,00.0,39.2,32.2,19.8,0000.0,0009.89,0004.74,0004.37
2022-09-18 13:45:00,,0826.2,5.00,0.00,30.4,28.9,00.0,39.2,32.2,19.8,0000.0,0010.12,0004.76,0004.39
2022-09-18 13:46:00,,0826.2,5.00,0.00,30.4,28.9,00.0,39.3,32.2,19.9,0000.0,0009.78,0004.76,0004.41
2022-09-18 13:47:00,,0826.1,4.99,0.00,30.5,28.9,00.0,39.3,32.2,19.9,0000.8,0009.76,0004.77,0004.42
2022-09-18 13:48:00,,0826.1,5.00,0.00,30.5,29.0,00.0,39.3,32.2,19.9,0000.9,0009.62,0004.78,0004.45
2022-09-18 13:49:00,,0826.2,5.01,0.00,30.5,28.9,00.0,39.2,32.2,20.0,0001.2,0009.28,0004.81,0004.47
2022-09-18 13:50:00,,0826.1,5.00,0.00,30.5,29.0,00.0,39.3,32.2,20.1,0001.8,0009.17,0004.82,0004.49
2022-09-18 13:51:00,,0826.2,5.01,0.00,30.5,29.0,00.0,39.3,32.2,20.1,0001.9,0009.36,0004.85,0004.52
2022-09-18 13:52:00,,0826.2,4.99,0.00,30.5,29.0,00.0,39.3,32.2,20.1,0001.7,0009.27,0004.88,0004.55
2022-09-18 13:53:00,,0826.2,5.01,0.00,30.5,29.0,00.0,39.3,32.2,20.3,0002.0,0009.02,0004.90,0004.56
2022-09-18 13:54:00,,0826.2,5.01,0.00,30.5,29.0,00.0,39.3,32.2,20.2,0001.6,0009.03,0004.92,0004.60
2022-09-18 13:55:00,,0826.2,4.99,0.00,30.5,29.0,00.0,39.3,32.2,20.2,0001.4,0009.29,0004.97,0004.64
2022-09-18 13:56:00,,0826.2,5.00,0.00,30.5,29.0,00.0,39.3,32.2,20.2,0001.2,0008.93,0004.99,0004.66
2022-09-18 13:57:00,,0826.2,4.99,0.00,30.5,29.0,00.0,39.3,32.3,20.2,0001.2,0009.25,0005.01,0004.68
2022-09-18 13:58:00,,0826.2,5.01,0.00,30.5,29.0,00.0,39.3,32.3,20.5,0000.9,0009.64,0005.04,0004.70
2022-09-18 13:59:00,,0826.2,5.00,0.00,30.5,29.0,00.0,39.3,32.3,20.7,0000.6,0009.71,0005.06,0004.69
